SAS53G ENVA-ENZV

Flight info

Callsign SAS53G
Flight time 0h 59m
Altitude 34000
Route OSMUM DCT OKEXA DCT XAROS DCT ROPNO
Aircraft A320/M-SDE3FGHIRWY/LB1

Departure

Time 2026-04-09 23:29
Airport Trondheim Airport, Værnes (ENVA)

Arrival

Time 2026-04-10 00:29
Airport Stavanger Airport, Sola (ENZV)
Time Latitude Longitude Altitude Speed Heading
2026-04-09 22:56 63.45497 10.91582 121 ft 0 kts 180°
2026-04-09 23:21 63.45514 10.91583 39 ft 4 kts 181°
2026-04-09 23:21 63.45541 10.91586 39 ft 4 kts 186°
2026-04-09 23:21 63.45568 10.91595 39 ft 4 kts 196°
2026-04-09 23:22 63.45590 10.91618 34 ft 4 kts 234°
2026-04-09 23:22 63.45596 10.91641 34 ft 0 kts 270°
2026-04-09 23:25 63.45596 10.91624 39 ft 3 kts 270°
2026-04-09 23:25 63.45596 10.91562 39 ft 5 kts 270°
2026-04-09 23:25 63.45596 10.91464 39 ft 7 kts 270°
2026-04-09 23:25 63.45596 10.91327 38 ft 11 kts 270°
2026-04-09 23:26 63.45596 10.91081 35 ft 25 kts 270°
2026-04-09 23:26 63.45597 10.90700 34 ft 25 kts 270°
2026-04-09 23:26 63.45596 10.90285 32 ft 28 kts 269°
2026-04-09 23:26 63.45592 10.89865 30 ft 28 kts 268°
2026-04-09 23:27 63.45598 10.89457 29 ft 24 kts 270°
2026-04-09 23:27 63.45598 10.89085 29 ft 24 kts 270°
2026-04-09 23:27 63.45608 10.88841 29 ft 14 kts 290°
2026-04-09 23:27 63.45678 10.88685 29 ft 15 kts 347°
2026-04-09 23:28 63.45768 10.88735 29 ft 10 kts 69°
2026-04-09 23:28 63.45763 10.88808 29 ft 0 kts 93°
2026-04-09 23:28 63.45765 10.89047 29 ft 47 kts 90°
2026-04-09 23:29 63.45762 10.90245 32 ft 104 kts 90°
2026-04-09 23:29 63.45761 10.92219 43 ft 147 kts 90°
2026-04-09 23:29 63.45745 10.94649 410 ft 159 kts 93°
2026-04-09 23:29 63.45751 10.97136 1005 ft 162 kts 99°
2026-04-09 23:30 63.45750 10.99666 1545 ft 164 kts 101°
2026-04-09 23:30 63.45742 11.02387 1789 ft 187 kts 101°
2026-04-09 23:30 63.45715 11.05462 2072 ft 207 kts 102°
2026-04-09 23:30 63.45692 11.08795 2576 ft 220 kts 102°
2026-04-09 23:31 63.45676 11.12256 3173 ft 226 kts 102°
2026-04-09 23:31 63.45663 11.15801 3521 ft 231 kts 100°
2026-04-09 23:31 63.45654 11.19413 4094 ft 234 kts 101°
2026-04-09 23:31 63.45643 11.23098 4873 ft 240 kts 99°
2026-04-09 23:32 63.45631 11.26876 5598 ft 246 kts 98°
2026-04-09 23:32 63.45580 11.29398 6095 ft 244 kts 107°
2026-04-09 23:32 63.44907 11.32723 6668 ft 232 kts 139°
2026-04-09 23:32 63.43563 11.34742 6948 ft 242 kts 168°
2026-04-09 23:33 63.41874 11.35049 7040 ft 247 kts 183°
2026-04-09 23:33 63.40128 11.34976 7593 ft 252 kts 183°
2026-04-09 23:33 63.38399 11.34475 8490 ft 252 kts 198°
2026-04-09 23:33 63.36872 11.32531 9250 ft 260 kts 220°
2026-04-09 23:34 63.35624 11.29582 10028 ft 263 kts 224°
2026-04-09 23:34 63.34381 11.26554 10480 ft 278 kts 224°
2026-04-09 23:34 63.33025 11.23267 10668 ft 300 kts 224°
2026-04-09 23:34 63.31576 11.19761 11076 ft 313 kts 224°
2026-04-09 23:35 63.30099 11.16168 11742 ft 317 kts 224°
2026-04-09 23:35 63.28603 11.12527 12404 ft 320 kts 224°
2026-04-09 23:35 63.27089 11.08857 13095 ft 324 kts 224°
2026-04-09 23:35 63.25558 11.05157 13772 ft 327 kts 224°
2026-04-09 23:36 63.24004 11.01416 14376 ft 331 kts 224°
2026-04-09 23:36 63.22436 10.97648 14981 ft 334 kts 224°
2026-04-09 23:36 63.20855 10.93859 15553 ft 336 kts 224°
2026-04-09 23:36 63.19259 10.90038 16146 ft 339 kts 224°
2026-04-09 23:37 63.17651 10.86192 16739 ft 342 kts 224°
2026-04-09 23:37 63.16025 10.82312 17336 ft 345 kts 224°
2026-04-09 23:37 63.14390 10.78413 17933 ft 348 kts 224°
2026-04-09 23:37 63.12734 10.74479 18497 ft 350 kts 223°
2026-04-09 23:38 63.11068 10.70527 19041 ft 353 kts 223°
2026-04-09 23:38 63.09383 10.66539 19594 ft 356 kts 223°
2026-04-09 23:38 63.07684 10.62524 20127 ft 360 kts 223°
2026-04-09 23:38 63.05967 10.58471 20656 ft 363 kts 223°
2026-04-09 23:39 63.04237 10.54391 21148 ft 366 kts 223°
2026-04-09 23:39 63.02483 10.50262 21574 ft 372 kts 223°
2026-04-09 23:39 63.00690 10.46062 21874 ft 380 kts 223°
2026-04-09 23:39 62.98871 10.41809 22321 ft 384 kts 223°
2026-04-09 23:40 62.97034 10.37521 22789 ft 387 kts 223°
2026-04-09 23:40 62.95179 10.33196 23261 ft 390 kts 223°
2026-04-09 23:40 62.93315 10.28848 23700 ft 393 kts 223°
2026-04-09 23:40 62.91429 10.24457 24082 ft 395 kts 223°
2026-04-09 23:41 62.89533 10.20064 24420 ft 398 kts 223°
2026-04-09 23:41 62.87622 10.15644 24803 ft 400 kts 223°
2026-04-09 23:41 62.85678 10.11256 25166 ft 401 kts 220°
2026-04-09 23:41 62.83491 10.07483 25508 ft 401 kts 211°
2026-04-09 23:42 62.81045 10.04563 25833 ft 401 kts 201°
2026-04-09 23:42 62.78472 10.02191 26182 ft 403 kts 201°
2026-04-09 23:42 62.75886 9.99813 26603 ft 403 kts 201°
2026-04-09 23:42 62.73297 9.97427 26986 ft 405 kts 201°
2026-04-09 23:43 62.70694 9.95029 27258 ft 408 kts 201°
2026-04-09 23:43 62.68078 9.92618 27650 ft 409 kts 201°
2026-04-09 23:43 62.65461 9.90208 28133 ft 408 kts 201°
2026-04-09 23:43 62.62831 9.87793 28392 ft 412 kts 201°
2026-04-09 23:44 62.60168 9.85362 28613 ft 416 kts 201°
2026-04-09 23:44 62.57493 9.82931 28955 ft 417 kts 201°
2026-04-09 23:44 62.55263 9.80908 29326 ft 416 kts 201°
2026-04-09 23:45 62.53662 9.79428 29233 ft 424 kts 201°
2026-04-09 23:45 62.50937 9.76934 29595 ft 424 kts 201°
2026-04-09 23:45 62.48234 9.74498 30207 ft 419 kts 201°
2026-04-09 23:45 62.45529 9.72078 30458 ft 423 kts 201°
2026-04-09 23:46 62.42801 9.69640 30742 ft 425 kts 201°
2026-04-09 23:46 62.40106 9.67226 31082 ft 425 kts 201°
2026-04-09 23:46 62.37379 9.64777 31463 ft 425 kts 201°
2026-04-09 23:46 62.34613 9.62294 31862 ft 424 kts 201°
2026-04-09 23:47 62.31924 9.59887 32257 ft 424 kts 201°
2026-04-09 23:47 62.29168 9.57423 32691 ft 423 kts 201°
2026-04-09 23:47 62.26450 9.55002 33099 ft 422 kts 201°
2026-04-09 23:47 62.23735 9.52592 33497 ft 422 kts 201°
2026-04-09 23:48 62.21025 9.50192 33895 ft 421 kts 201°
2026-04-09 23:48 62.18323 9.47795 34062 ft 418 kts 201°
2026-04-09 23:48 62.15632 9.45409 34084 ft 418 kts 200°
2026-04-09 23:49 62.10235 9.40656 34089 ft 422 kts 200°
2026-04-09 23:49 62.04832 9.35931 34089 ft 422 kts 200°
2026-04-09 23:50 61.99393 9.31192 34089 ft 423 kts 200°
2026-04-09 23:50 61.93846 9.26778 34098 ft 422 kts 198°
2026-04-09 23:51 61.88302 9.22658 34091 ft 424 kts 198°
2026-04-09 23:51 61.82655 9.18474 34104 ft 434 kts 198°
2026-04-09 23:52 61.76941 9.14165 34081 ft 437 kts 198°
2026-04-09 23:52 61.71229 9.09819 34089 ft 436 kts 198°
2026-04-09 23:53 61.65507 9.05493 34095 ft 437 kts 198°
2026-04-09 23:53 61.59783 9.01208 34091 ft 437 kts 198°
2026-04-09 23:54 61.54043 8.96935 34093 ft 438 kts 198°
2026-04-09 23:54 61.48334 8.92684 34100 ft 439 kts 198°
2026-04-09 23:55 61.42571 8.88425 34101 ft 439 kts 198°
2026-04-09 23:55 61.36813 8.84182 34115 ft 439 kts 198°
2026-04-09 23:56 61.31044 8.79961 34122 ft 439 kts 198°
2026-04-09 23:56 61.25273 8.75756 34124 ft 440 kts 198°
2026-04-09 23:57 61.19506 8.71537 34127 ft 439 kts 198°
2026-04-09 23:57 61.13738 8.67344 34124 ft 439 kts 198°
2026-04-09 23:58 61.07962 8.63188 34134 ft 439 kts 198°
2026-04-09 23:58 61.02192 8.59034 34136 ft 439 kts 198°
2026-04-09 23:59 60.96438 8.54882 34122 ft 438 kts 197°
2026-04-09 23:59 60.90684 8.50775 34119 ft 438 kts 197°
2026-04-10 00:00 60.84931 8.46695 34121 ft 437 kts 197°
2026-04-10 00:00 60.79180 8.42619 34118 ft 437 kts 197°
2026-04-10 00:01 60.73430 8.38558 34114 ft 438 kts 197°
2026-04-10 00:01 60.67665 8.34496 34107 ft 439 kts 197°
2026-04-10 00:02 60.61891 8.30433 34111 ft 439 kts 197°
2026-04-10 00:02 60.56105 8.26392 34106 ft 440 kts 197°
2026-04-10 00:03 60.50310 8.22367 34105 ft 440 kts 197°
2026-04-10 00:03 60.44521 8.18362 34115 ft 439 kts 197°
2026-04-10 00:04 60.38748 8.14380 34119 ft 438 kts 197°
2026-04-10 00:04 60.32984 8.10415 34117 ft 437 kts 197°
2026-04-10 00:05 60.27324 8.05901 34112 ft 439 kts 207°
2026-04-10 00:05 60.22221 7.99213 34096 ft 435 kts 210°
2026-04-10 00:06 60.17177 7.92515 34104 ft 434 kts 210°
2026-04-10 00:06 60.12127 7.85859 34098 ft 434 kts 210°
2026-04-10 00:07 60.07082 7.79233 34029 ft 433 kts 210°
2026-04-10 00:07 60.04551 7.75913 32963 ft 438 kts 210°
2026-04-10 00:07 60.01998 7.72571 31998 ft 439 kts 210°
2026-04-10 00:07 59.99454 7.69243 31197 ft 435 kts 210°
2026-04-10 00:08 59.96924 7.65940 30448 ft 432 kts 210°
2026-04-10 00:08 59.94421 7.62676 29732 ft 428 kts 210°
2026-04-10 00:08 59.91938 7.59445 29022 ft 423 kts 210°
2026-04-10 00:08 59.89487 7.56259 28367 ft 419 kts 210°
2026-04-10 00:09 59.87059 7.53107 27724 ft 414 kts 210°
2026-04-10 00:09 59.84692 7.50040 27090 ft 409 kts 210°
2026-04-10 00:09 59.82320 7.46972 26457 ft 405 kts 210°
2026-04-10 00:09 59.79965 7.43940 25864 ft 401 kts 210°
2026-04-10 00:10 59.77647 7.40956 25417 ft 393 kts 210°
2026-04-10 00:10 59.75369 7.38027 24937 ft 388 kts 210°
2026-04-10 00:10 59.73122 7.35149 24486 ft 381 kts 210°
2026-04-10 00:10 59.70906 7.32320 24009 ft 376 kts 210°
2026-04-10 00:11 59.68721 7.29528 23572 ft 372 kts 210°
2026-04-10 00:11 59.66562 7.26767 23101 ft 367 kts 210°
2026-04-10 00:11 59.64429 7.24045 22685 ft 362 kts 210°
2026-04-10 00:11 59.62323 7.21358 22256 ft 359 kts 211°
2026-04-10 00:12 59.60406 7.18098 21327 ft 375 kts 226°
2026-04-10 00:12 59.58792 7.13974 20539 ft 381 kts 227°
2026-04-10 00:12 59.57218 7.09815 20112 ft 375 kts 227°
2026-04-10 00:12 59.55669 7.05693 19646 ft 372 kts 227°
2026-04-10 00:13 59.54133 7.01609 19109 ft 370 kts 227°
2026-04-10 00:13 59.52603 6.97559 18610 ft 367 kts 227°
2026-04-10 00:13 59.51074 6.93544 18126 ft 365 kts 227°
2026-04-10 00:13 59.49553 6.89576 17531 ft 362 kts 227°
2026-04-10 00:14 59.48043 6.85648 16941 ft 358 kts 227°
2026-04-10 00:14 59.46574 6.81818 16383 ft 341 kts 227°
2026-04-10 00:14 59.45182 6.78188 15935 ft 324 kts 227°
2026-04-10 00:14 59.43855 6.74740 15505 ft 309 kts 227°
2026-04-10 00:15 59.42583 6.71441 15050 ft 298 kts 226°
2026-04-10 00:15 59.41329 6.68209 14644 ft 297 kts 227°
2026-04-10 00:15 59.38835 6.61798 13830 ft 298 kts 226°
2026-04-10 00:16 59.37565 6.58526 13439 ft 295 kts 226°
2026-04-10 00:16 59.36333 6.55349 13053 ft 291 kts 226°
2026-04-10 00:16 59.35521 6.53265 12787 ft 291 kts 225°
2026-04-10 00:16 59.33903 6.49119 12251 ft 288 kts 227°
2026-04-10 00:17 59.33082 6.47015 11984 ft 287 kts 227°
2026-04-10 00:17 59.31481 6.42914 11456 ft 286 kts 227°
2026-04-10 00:17 59.30271 6.39822 11028 ft 285 kts 227°
2026-04-10 00:17 59.29066 6.36745 10630 ft 284 kts 226°
2026-04-10 00:18 59.28256 6.34684 10428 ft 281 kts 226°
2026-04-10 00:18 59.27087 6.31696 10287 ft 272 kts 226°
2026-04-10 00:18 59.25952 6.28798 10115 ft 265 kts 226°
2026-04-10 00:18 59.24831 6.25945 10056 ft 265 kts 226°
2026-04-10 00:19 59.23707 6.23100 9998 ft 265 kts 226°
2026-04-10 00:19 59.22572 6.20239 9652 ft 270 kts 226°
2026-04-10 00:19 59.21435 6.17369 9244 ft 266 kts 226°
2026-04-10 00:19 59.20301 6.14506 8855 ft 265 kts 225°
2026-04-10 00:20 59.19175 6.11662 8386 ft 265 kts 225°
2026-04-10 00:20 59.18058 6.08829 8133 ft 262 kts 224°
2026-04-10 00:20 59.16953 6.06027 7822 ft 260 kts 224°
2026-04-10 00:20 59.15855 6.03255 7456 ft 257 kts 224°
2026-04-10 00:21 59.14760 6.00503 7129 ft 256 kts 223°
2026-04-10 00:21 59.13672 5.97774 6812 ft 254 kts 223°
2026-04-10 00:21 59.12605 5.95106 6501 ft 252 kts 222°
2026-04-10 00:21 59.11530 5.92415 6174 ft 251 kts 222°
2026-04-10 00:22 59.10460 5.89741 5819 ft 250 kts 221°
2026-04-10 00:22 59.09392 5.87082 5450 ft 250 kts 221°
2026-04-10 00:22 59.08331 5.84435 4871 ft 247 kts 220°
2026-04-10 00:22 59.07273 5.81802 4237 ft 247 kts 220°
2026-04-10 00:23 59.06218 5.79174 3638 ft 246 kts 220°
2026-04-10 00:23 59.05189 5.76527 3090 ft 247 kts 226°
2026-04-10 00:23 59.04481 5.73551 2989 ft 237 kts 236°
2026-04-10 00:23 59.03934 5.70662 2918 ft 224 kts 235°
2026-04-10 00:24 59.03386 5.67867 2805 ft 220 kts 234°
2026-04-10 00:24 59.02720 5.65327 2697 ft 196 kts 214°
2026-04-10 00:24 59.01746 5.63850 2535 ft 166 kts 191°
2026-04-10 00:24 59.00689 5.63390 2362 ft 150 kts 171°
2026-04-10 00:25 58.99656 5.63417 2197 ft 146 kts 171°
2026-04-10 00:25 58.98673 5.63444 1971 ft 133 kts 170°
2026-04-10 00:25 58.97792 5.63468 1796 ft 120 kts 169°
2026-04-10 00:25 58.96987 5.63492 1630 ft 110 kts 168°
2026-04-10 00:26 58.96236 5.63517 1488 ft 107 kts 168°
2026-04-10 00:26 58.95491 5.63543 1342 ft 107 kts 169°
2026-04-10 00:26 58.94745 5.63565 1190 ft 108 kts 170°
2026-04-10 00:26 58.93994 5.63584 1018 ft 109 kts 169°
2026-04-10 00:27 58.93231 5.63609 823 ft 109 kts 170°
2026-04-10 00:27 58.92482 5.63638 650 ft 108 kts 173°
2026-04-10 00:27 58.91713 5.63665 511 ft 113 kts 175°
2026-04-10 00:27 58.90924 5.63677 387 ft 114 kts 175°
2026-04-10 00:28 58.90134 5.63700 230 ft 113 kts 175°
2026-04-10 00:28 58.89359 5.63724 88 ft 109 kts 174°
2026-04-10 00:28 58.88657 5.63751 30 ft 84 kts 178°
2026-04-10 00:28 58.88191 5.63772 31 ft 54 kts 178°
2026-04-10 00:29 58.87860 5.63777 33 ft 40 kts 179°
2026-04-10 00:29 58.87696 5.63748 33 ft 8 kts 270°
2026-04-10 00:29 58.87717 5.63536 33 ft 24 kts 285°
2026-04-10 00:29 58.87778 5.63307 31 ft 18 kts 335°
2026-04-10 00:30 58.87900 5.63335 31 ft 19 kts 19°
2026-04-10 00:30 58.88033 5.63433 30 ft 22 kts 10°
2026-04-10 00:30 58.88174 5.63432 30 ft 21 kts
2026-04-10 00:30 58.88226 5.63433 30 ft 0 kts
2026-04-10 00:34 58.88227 5.63433 30 ft 1 kts 360°
2026-04-10 00:34 58.88248 5.63426 30 ft 4 kts 340°
2026-04-10 00:35 58.88271 5.63384 32 ft 5 kts 298°
2026-04-10 00:35 58.88280 5.63312 31 ft 8 kts 290°
2026-04-10 00:35 58.88336 5.63242 29 ft 12 kts 346°
2026-04-10 00:35 58.88412 5.63154 27 ft 11 kts 294°
2026-04-10 00:36 58.88376 5.63055 28 ft 12 kts 217°
2026-04-10 00:36 58.88355 5.63016 25 ft 0 kts 222°